Weather in Marsyaty

Russia / Sverdlovsk Oblast     60°02′38″N   60°28′39″E
temp.,
°C
wind,
m/s
gust,
m/s
humid.,
%
clouds,
%
prec.,
mm/h
press.,
hPa
HPBL,
m
27 january, wed
wed2723:00−3wsw51479100 0.0 1020475
02:00−5w3118398 0.0 1020349
05:00−5w278697 0.0 1021221
08:00−3w288697 0.1 1021325
11:00−5sw129297 0.1 102256
14:00−3sw139096 0.0 1022276
17:00−6ssw129396 0.0 102223
20:00−8sw378778 0.0 1021155
28 january, thu
thu2823:00−8ssw259189 0.0 1019120
02:00−6ssw2593100 0.0 1017157
05:00−5ssw3890100 0.0 1015254
08:00−5ssw3890100 0.0 1014252
11:00−5wsw3989100 0.0 1013433
14:00−2sw41182100 0.0 1012721
17:00−3wsw41384100 0.0 1013715
20:00−4wsw41383100 0.0 1015530
29 january, fri
fri2923:00−4wsw41184100 0.0 1017305
02:00−6wsw268966 0.0 1019121
05:00−7wsw238934 0.0 102034
08:00−9n129134 0.0 102122
11:00−16nne479663 0.1 1024246
14:00−19nne4794100 0.4 1025320
17:00−21n3795100 0.6 1027333
20:00−22n4796100 0.2 1028354
30 january, sat
sat3023:00−24n4795100 0.4 1030330
02:00−25n4895100 0.1 1029344
05:00−26n4895100 0.3 1028370
08:00−27n4896100 0.1 1027372
11:00−27n4894100 0.3 1027348
14:00−26n3694100 0.1 1025389
17:00−26n3695100 0.1 1024340
20:00−26n3696100 0.6 1022252
31 january, sun
sun3123:00−26n3598100 1.1 1022241
02:00−26nnw2497100 0.5 1021225
05:00−27nnw249799 0.6 1020149
08:00−28n129797 0.0 102028
11:00−26nnw019597 0.1 1020112
14:00−22sse1291100 0.0 1020256
17:00−23se2298100 0.0 101930
20:00−23sse1299100 0.0 101921